Simultaneous Nadir Overpasses (SNOs) Predictions

Prediction of SNOs between METOP-B and TERRA Satellite Orbit:

Table of predicted SNOs for the next 14.0 days since TLE Epoch: 9/4/2021
Index Date (METOP-B) Time (METOP-B) Lat,Lon (METOP-B) SZA (METOP-B ) Date (TERRA) Time (TERRA) Lat,Lon (TERRA) SZA (TERRA ) Distance(km) Time Diff (sec)
1 09/06/2021 04:38:49 81.25, 154.81 77.46 09/06/2021 04:39:27 81.25, 154.89 77.49 1.38 38
2 09/06/2021 05:29:28 -81.26, -37.25 102.46 09/06/2021 05:28:53 -81.27, -37.18 102.46 1.45 35
3 09/09/2021 00:13:10 81.25,-138.62 78.56 09/09/2021 00:13:39 81.25,-138.70 78.56 1.31 29
4 09/09/2021 01:03:49 -81.26, 29.35 101.36 09/09/2021 01:03:05 -81.27, 29.26 101.39 1.68 44
5 09/11/2021 19:47:33 81.25, -72.46 79.61 09/11/2021 19:47:52 81.25, -72.33 79.64 2.33 19
6 09/11/2021 20:38:12 -81.26, 95.55 100.29 09/11/2021 20:37:18 -81.27, 95.66 100.30 1.87 54
7 09/14/2021 15:21:54 81.26, -5.55 80.78 09/14/2021 15:22:04 81.26, -5.62 80.78 1.33 10
8 09/14/2021 16:12:34 -81.26, 162.12 99.17 09/14/2021 16:11:31 -81.26, 162.02 99.22 1.80 63
9 09/17/2021 10:05:42 -81.20,-108.90 98.44 09/17/2021 10:06:56 -81.14,-108.78 98.44 6.88 74
10 09/17/2021 10:56:17 81.25, 60.58 81.85 09/17/2021 10:56:17 81.25, 60.68 81.86 1.82 0



Historial Predications of SNOs between METOP-B and TERRA
